Temp
63 63 63 63 63 63 63 63 63 63 63 63 63 63 63 63 63 83 94 90 92 83 82 103 103 105 107 104 105 106 91 85 88 90 93 101 98 101 103 97 96 98 98 100 99
62 62 62 63 63 63 63 63 63 63 63 63 63 62 63 63 82 95 81 82 83 80 99 100 99 103 101 101 103 99 85 90 98 98 95 98 98 99 97 96 92 94 98 99 98
62 62 62 62 63 63 62 62 63 62 62 62 62 63 63 68 88 97 80 81 81 84 103 104 104 102 98 102 100 101 92 97 98 99 100 99 99 102 97 93 98 93 94 96 95
61 61 62 62 62 62 62 62 62 62 62 62 62 63 63 84 84 96 80 81 80 98 103 101 100 97 96 94 99 93 98 98 100 100 100 98 102 99 98 99 103 101 99 96 95
60 61 61 61 61 62 62 62 61 61 61 62 62 63 77 92 94 94 80 83 98 103 100 99 98 98 93 96 96 94 96 98 100 101 100 101 99 97 98 103 102 103 99 96 96
60 60 60 60 61 61 61 60 60 60 61 62 63 61 87 88 103 100 102 101 103 102 100 102 99 100 97 95 94 98 96 98 101 99 100 97 98 98 99 102 102 99 98 99 98
59 59 59 60 60 60 60 60 60 60 62 63 63 80 91 94 104 105 104 104 104 105 99 102 102 99 99 95 99 98 92 98 99 99 98 101 94 94 100 100 98 98 98 98 98
59 59 59 59 59 59 59 58 60 62 64 63 64 87 92 102 107 101 105 102 105 106 105 104 104 101 98 101 97 93 95 88 98 97 98 98 86 96 100 99 97 97 97 96 96
58 58 58 58 58 58 58 58 61 65 64 66 81 91 92 87 98 105 106 100 102 103 103 103 103 99 99 92 90 93 85 88 90 97 95 94 89 97 100 98 96 95 94 95 94
58 58 57 57 58 57 57 58 65 65 71 87 91 87 95 94 102 103 105 103 99 99 96 96 97 93 95 92 81 85 87 89 85 94 94 92 92 98 99 98 96 95 93 93 92
57 57 57 57 57 57 66 84 84 82 89 92 93 93 94 100 102 99 103 99 99 95 88 93 89 86 91 93 91 89 86 85 90 94 89 90 90 94 98 98 96 94 91 92 92
57 57 56 56 56 56 69 90 88 88 83 97 97 95 97 101 92 98 104 93 91 86 92 88 85 93 91 90 88 88 85 85 90 93 90 90 90 95 97 96 97 96 91 93 93
56 56 56 55 55 68 90 90 95 95 84 93 95 94 96 98 93 94 99 96 90 87 88 85 89 91 88 88 85 87 85 85 84 90 94 90 86 90 96 96 96 97 97 95 92
56 56 55 53 65 90 88 92 97 94 78 85 87 93 98 97 90 102 102 97 91 87 89 89 94 87 87 86 88 83 90 87 86 84 80 89 76 86 92 92 93 94 95 96 93
55 55 54 53 74 86 89 96 95 91 65 88 89 101 99 92 96 94 103 97 87 87 87 85 87 85 83 86 90 85 90 87 87 84 84 85 80 86 91 88 92 95 95 96 94
55 55 54 73 79 90 94 94 90 72 64 81 89 87 88 91 92 95 94 99 97 89 89 89 94 91 90 91 91 92 87 87 87 86 75 82 82 81 87 87 91 94 95 94 94
54 53 57 77 85 92 93 87 72 67 86 81 83 89 87 86 88 87 86 84 82 76 78 85 87 92 92 86 91 89 83 73 72 73 71 84 80 82 91 93 92 93 94 95 95
53 52 62 78 88 88 86 77 63 79 81 86 86 88 83 88 88 86 84 81 88 87 84 78 76 88 92 88 85 85 83 75 63 68 69 82 75 82 93 95 95 95 97 96 95
51 78 81 86 87 87 80 68 72 80 83 81 82 80 82 87 87 85 84 84 88 89 78 80 78 91 90 93 91 85 79 90 78 80 76 80 84 91 93 93 93 94 95 94 95
69 81 85 87 87 83 75 66 80 83 81 82 76 82 77 81 81 83 82 89 88 92 93 86 76 89 89 92 92 87 92 78 80 65 63 75 76 80 84 88 91 91 92 94 94
71 77 81 89 88 79 70 76 82 84 83 79 78 79 82 81 83 83 83 87 92 91 93 90 82 82 87 83 83 84 81 83 85 80 67 63 67 88 87 91 90 92 94 94 93
78 73 85 88 73 78 75 81 64 82 84 83 81 80 80 81 80 81 82 87 92 93 85 90 85 76 81 92 93 90 85 84 75 71 78 76 71 91 94 94 93 94 94 94 94
75 80 86 85 70 76 80 79 79 81 81 81 81 82 82 77 74 82 83 89 89 89 86 89 80 72 75 85 89 83 87 87 85 81 72 70 74 92 92 93 93 93 94 91 91
74 70 77 79 82 73 75 72 73 82 82 83 82 82 79 78 81 78 81 84 87 90 72 81 81 76 74 72 81 78 83 86 83 75 76 79 81 86 89 91 90 92 92 90 88
78 74 74 69 74 75 76 75 74 72 80 81 78 78 78 74 77 75 83 84 86 73 83 85 73 80 82 85 86 84 83 85 81 82 76 80 70 70 87 90 92 92 89 87 86
69 71 78 77 71 72 64 71 72 77 76 74 74 80 80 74 77 76 82 81 81 86 84 85 73 78 77 84 85 81 84 84 85 84 84 85 77 63 91 92 91 90 87 85 85
75 78 73 63 71 70 73 73 73 77 77 80 80 80 76 78 84 84 84 82 82 79 79 79 76 73 69 80 81 74 81 83 85 88 86 80 86 92 90 88 88 90 89 86 87
MSLP
1017.09 1016.74 1016.61 1016.23 1015.84 1015.49 1015.24 1015.02 1014.63 1014.37 1014.05 1013.61 1013.34 1012.76 1012.27 1011.95 1011.47 1010.77 1008.46 1008.29 1007.91 1008.00 1008.05 1006.29 1005.75 1004.69 1003.87 1002.61 1001.90 1001.03 999.50 999.40 999.87 999.84 1000.06 1000.53 1000.49 1001.63 1002.28 1002.72 1003.55 1004.10 1004.41 1005.22 1007.09
1017.32 1016.97 1016.66 1016.29 1015.83 1015.46 1015.19 1014.97 1014.38 1014.10 1013.88 1013.52 1013.07 1012.74 1012.33 1011.90 1010.75 1008.58 1008.49 1008.00 1008.15 1008.14 1007.17 1005.74 1004.77 1004.14 1002.92 1002.06 1001.26 1000.77 999.93 999.37 1000.13 1000.73 1000.66 1000.76 1001.01 1001.15 1001.57 1002.23 1003.53 1004.43 1005.25 1006.11 1007.16
1017.38 1017.26 1016.82 1016.33 1015.94 1015.44 1015.39 1014.81 1014.41 1013.97 1013.72 1013.36 1012.92 1012.52 1012.31 1011.80 1009.38 1007.22 1008.28 1008.21 1008.22 1008.19 1006.68 1005.62 1004.74 1003.86 1002.43 1001.88 1001.00 1000.10 999.24 1000.10 1000.81 1001.38 1001.06 1000.53 1000.32 1000.83 1000.89 1000.94 1001.84 1003.81 1005.17 1006.22 1007.03
1017.84 1017.35 1016.76 1016.25 1015.84 1015.65 1015.29 1014.81 1014.28 1013.98 1013.49 1013.06 1012.77 1012.39 1012.13 1010.80 1007.61 1007.76 1008.44 1008.28 1008.31 1007.58 1006.32 1005.28 1004.48 1003.56 1002.39 1001.85 1001.70 1000.90 1000.88 1001.11 1000.96 1001.19 1000.98 1000.65 1000.72 1000.48 1000.86 1001.09 1002.31 1003.22 1004.76 1005.95 1006.73
1017.91 1017.50 1017.01 1016.40 1016.00 1015.63 1015.16 1014.75 1014.33 1013.63 1013.46 1012.83 1012.58 1012.22 1011.45 1008.75 1006.86 1007.91 1008.39 1008.34 1007.86 1006.86 1005.76 1004.82 1004.02 1003.19 1002.41 1001.97 1002.15 1001.58 1001.34 1001.54 1001.22 1001.07 1001.14 1001.06 1000.61 1000.82 1000.94 1001.32 1002.74 1003.35 1004.54 1005.48 1006.21
1018.05 1017.70 1017.17 1016.62 1016.12 1015.47 1014.97 1014.50 1014.03 1013.44 1013.05 1012.60 1012.31 1012.27 1010.29 1007.49 1006.63 1007.51 1007.19 1007.43 1006.56 1006.13 1005.50 1004.97 1003.98 1003.81 1002.82 1002.67 1002.25 1001.82 1001.92 1001.47 1001.13 1000.82 1000.76 1000.84 1000.33 1000.91 1001.00 1001.86 1002.31 1003.56 1004.34 1004.92 1005.74
1018.43 1017.82 1017.25 1016.71 1016.08 1015.51 1015.01 1014.47 1013.73 1013.14 1012.72 1012.39 1012.22 1011.63 1008.98 1006.89 1006.64 1006.86 1006.88 1006.27 1006.37 1005.73 1005.25 1005.30 1004.85 1004.23 1003.16 1002.51 1002.43 1002.37 1001.83 1000.88 1000.55 1000.58 1000.56 1000.60 1000.04 1000.14 1001.10 1001.92 1002.37 1003.37 1004.08 1004.68 1005.45
1018.53 1017.95 1017.38 1016.69 1016.15 1015.47 1014.73 1014.07 1013.43 1012.70 1012.83 1012.27 1012.36 1010.73 1007.27 1006.72 1006.52 1006.92 1006.38 1006.36 1006.49 1006.14 1005.40 1005.56 1005.10 1004.20 1003.52 1002.69 1002.57 1001.92 1001.22 1000.09 999.42 1000.55 1000.60 1000.72 999.68 1000.53 1001.27 1001.54 1002.10 1003.12 1003.85 1004.64 1005.50
1018.54 1017.94 1017.47 1016.85 1016.14 1015.45 1014.74 1013.99 1013.43 1013.08 1012.84 1012.32 1011.55 1009.40 1006.19 1007.36 1006.50 1006.10 1006.06 1005.72 1006.05 1005.90 1005.79 1005.87 1004.96 1003.50 1002.84 1002.48 1001.36 1000.74 1000.14 999.45 999.38 1000.59 1000.77 1000.73 1000.03 1000.26 1001.09 1001.60 1001.96 1003.24 1003.93 1004.69 1005.66
1018.50 1017.86 1017.29 1016.69 1016.07 1015.31 1014.55 1013.94 1013.17 1012.94 1012.42 1010.90 1009.93 1008.56 1006.16 1005.32 1005.43 1005.67 1005.91 1005.97 1005.67 1005.49 1005.45 1005.19 1003.99 1002.83 1002.13 1001.30 1000.12 999.57 999.51 999.48 999.99 1000.24 1000.79 1000.39 999.96 1000.01 1000.59 1001.18 1001.86 1002.94 1004.10 1004.83 1005.80
1018.57 1017.88 1017.18 1016.51 1015.88 1015.26 1013.82 1012.77 1012.46 1011.46 1009.67 1007.04 1006.39 1005.61 1005.39 1005.46 1005.93 1005.59 1005.86 1005.85 1005.44 1005.18 1004.36 1004.20 1003.10 1001.75 1000.97 1001.12 1001.24 1001.22 1000.84 1000.44 1000.26 1000.53 1001.30 1000.37 1000.15 1000.03 1000.16 1000.89 1001.46 1002.59 1004.07 1004.72 1005.54
1018.62 1017.88 1017.13 1016.30 1015.48 1014.84 1014.32 1010.70 1010.42 1010.49 1008.07 1005.99 1005.70 1005.52 1005.51 1005.04 1004.74 1004.93 1005.52 1005.22 1004.84 1004.21 1003.85 1003.74 1002.55 1001.55 1002.44 1002.55 1002.21 1001.70 1001.22 1000.61 1000.46 1000.76 1001.25 1000.30 999.78 999.84 999.92 1000.62 1001.16 1002.12 1003.76 1004.44 1005.42
1018.62 1017.84 1017.00 1016.10 1015.16 1013.85 1011.50 1010.33 1010.34 1009.97 1007.80 1004.67 1004.90 1004.72 1004.82 1005.17 1003.96 1004.12 1004.89 1004.48 1004.06 1003.74 1003.32 1002.56 1002.13 1002.80 1003.04 1002.59 1002.30 1001.62 1001.17 1000.73 1000.99 1000.74 1000.48 1000.03 999.29 999.38 999.64 1000.75 1001.46 1001.99 1002.79 1004.06 1005.24
1018.56 1017.85 1017.04 1016.01 1014.84 1012.14 1010.70 1010.70 1010.19 1010.07 1007.03 1004.10 1004.19 1003.73 1003.97 1004.35 1003.60 1003.42 1004.28 1003.99 1003.62 1003.17 1002.96 1002.66 1002.22 1002.90 1002.77 1002.32 1002.18 1001.20 1001.37 1001.80 1001.48 1000.95 999.62 1000.10 999.01 998.76 999.18 999.99 1001.05 1001.82 1002.68 1003.46 1004.90
1018.55 1017.89 1017.13 1017.11 1014.69 1011.53 1010.96 1010.62 1010.42 1009.79 1005.32 1003.00 1003.29 1003.68 1003.35 1003.59 1002.30 1003.26 1003.89 1003.87 1003.31 1003.11 1003.37 1002.00 1002.42 1002.80 1002.60 1002.20 1002.24 1001.49 1002.07 1001.92 1001.64 1001.03 1000.28 999.55 999.21 998.22 999.04 999.44 999.99 1000.97 1002.20 1003.16 1004.72
1018.27 1017.69 1017.08 1014.78 1013.97 1011.53 1011.21 1010.77 1010.37 1008.30 1003.73 1002.53 1002.78 1003.08 1002.92 1003.05 1002.61 1002.87 1003.63 1003.83 1003.51 1003.12 1003.23 1002.43 1002.70 1002.55 1002.30 1002.30 1002.55 1002.25 1002.46 1001.91 1001.55 1000.70 999.60 998.98 999.19 998.56 998.26 999.50 1000.12 1001.10 1001.98 1003.28 1004.50
1017.69 1017.23 1017.05 1014.68 1011.76 1011.69 1011.33 1010.27 1008.26 1004.93 1002.79 1001.89 1001.91 1001.96 1002.04 1002.10 1002.23 1003.06 1003.09 1003.40 1002.89 1002.80 1002.30 1002.29 1002.15 1002.38 1002.53 1002.28 1002.40 1002.41 1002.09 1001.03 1000.10 999.26 998.55 999.13 999.25 998.95 999.13 999.81 1000.57 1000.88 1001.95 1003.24 1004.49
1016.95 1016.57 1014.85 1013.75 1012.40 1012.22 1011.23 1009.49 1006.18 1003.26 1002.04 1002.24 1001.57 1001.38 1001.15 1001.22 1001.50 1002.28 1002.55 1002.44 1002.54 1001.98 1000.99 1000.98 1000.73 1001.23 1001.87 1002.12 1001.51 1001.61 1001.80 1000.87 999.85 998.97 999.23 999.84 998.85 998.96 999.65 1000.22 1000.79 1001.39 1001.89 1003.19 1004.30
1016.21 1014.02 1012.97 1012.08 1012.37 1012.05 1010.41 1007.62 1004.63 1002.69 1002.45 1002.55 1002.48 1001.52 1000.91 1000.74 1001.03 1001.61 1001.66 1001.55 1001.41 1001.70 1001.48 1000.45 1000.53 1001.33 1001.85 1001.72 1001.99 1001.18 1001.48 1001.10 1000.67 1000.21 999.67 998.97 998.45 998.81 999.47 999.93 1000.64 1001.13 1001.97 1003.00 1004.05
1015.52 1012.46 1011.12 1011.89 1011.97 1011.35 1009.49 1006.13 1003.88 1004.05 1004.25 1003.63 1002.05 1001.49 1000.69 1000.93 1001.38 1001.05 1001.12 1000.88 1000.83 1001.16 1001.76 1000.86 1000.95 1001.10 1001.81 1002.20 1001.89 1001.72 1001.29 1000.98 1000.81 1000.19 999.63 998.43 998.77 998.27 999.28 999.56 1000.52 1001.34 1002.07 1003.01 1004.10
1015.07 1011.36 1011.45 1011.36 1011.32 1010.05 1007.49 1005.53 1004.54 1004.98 1005.04 1003.89 1002.74 1001.92 1001.12 1000.75 1001.07 1000.61 1000.55 1000.84 1000.73 1000.94 1001.71 1001.61 1001.83 1000.89 1001.67 1001.63 1000.88 1001.19 1001.34 1001.13 1000.40 999.99 999.68 999.36 1000.46 999.27 999.18 999.40 1000.21 1001.32 1002.11 1003.13 1004.18
1013.25 1010.38 1010.99 1010.96 1010.05 1008.18 1006.47 1005.20 1005.37 1005.04 1005.45 1004.41 1003.93 1003.18 1002.32 1002.14 1001.74 1000.96 1000.59 1000.56 1001.37 1001.37 1001.59 1001.75 1001.66 1001.24 1000.87 1000.38 1000.63 1000.70 1000.41 1000.60 1000.33 1000.47 1000.21 1000.03 1000.31 999.84 999.46 999.75 1000.26 1001.11 1002.21 1003.25 1004.21
1012.48 1010.25 1010.68 1010.29 1008.04 1006.49 1005.97 1005.42 1005.86 1005.34 1005.08 1004.56 1003.98 1003.90 1003.75 1003.27 1002.64 1001.87 1001.57 1002.10 1002.72 1002.25 1002.04 1001.98 1002.07 1001.58 1001.27 1000.56 1000.59 1000.90 1000.61 1000.62 1000.63 1000.87 1000.59 1000.28 999.74 999.87 999.75 1000.41 1000.58 1001.12 1002.28 1003.67 1004.59
1013.00 1009.89 1009.82 1009.80 1007.90 1007.28 1005.91 1006.34 1006.13 1006.00 1005.29 1005.18 1004.47 1004.64 1004.35 1003.80 1003.74 1002.94 1002.48 1003.16 1003.55 1003.08 1003.52 1003.20 1002.42 1001.85 1000.41 1001.06 1001.10 1000.41 1000.41 1000.32 1000.47 1000.47 1000.14 999.82 999.52 999.78 999.71 999.81 1001.06 1001.42 1002.56 1004.05 1005.25
1012.49 1009.76 1009.78 1008.44 1007.76 1007.41 1006.59 1006.25 1005.98 1005.98 1006.39 1006.13 1005.56 1005.27 1004.70 1004.17 1003.79 1003.75 1003.17 1003.39 1004.05 1004.19 1004.15 1003.90 1003.21 1002.42 1001.67 1000.91 1000.34 1000.05 999.72 999.61 999.88 1000.22 1000.09 999.75 1001.34 1001.52 999.64 1000.09 1000.73 1001.76 1003.21 1004.40 1005.57
1013.46 1011.37 1010.41 1009.02 1008.95 1008.09 1007.61 1006.94 1006.43 1005.83 1006.02 1006.03 1005.90 1005.41 1005.24 1005.13 1004.55 1004.08 1003.75 1003.85 1003.56 1003.93 1004.06 1004.08 1003.72 1003.21 1001.89 1001.03 1000.36 1000.00 999.91 999.82 999.40 999.66 999.69 999.70 1000.34 1002.26 1000.49 1000.92 1001.24 1002.13 1003.46 1004.61 1005.65
1014.68 1013.24 1012.14 1009.87 1009.30 1008.47 1007.15 1007.07 1007.04 1006.50 1006.96 1006.64 1006.02 1005.77 1006.06 1006.06 1005.62 1005.52 1005.55 1005.48 1005.24 1005.04 1004.54 1004.38 1004.14 1003.77 1002.49 1001.57 1000.45 999.94 999.79 999.50 999.29 999.04 999.13 999.14 999.45 999.94 999.95 1000.94 1001.78 1002.33 1003.50 1004.74 1005.88
Wind_Speed
14 14 14 14 14 14 14 14 14 13 12 13 12 11 11 11 14 8 6 4 1 4 6 6 9 10 11 12 9 12 6 6 5 9 8 7 4 7 3 8 2 3 9 15 17
14 15 15 15 15 14 14 15 15 14 13 12 12 11 11 9 10 12 5 5 1 7 10 7 7 8 12 7 6 9 15 14 13 7 8 4 4 4 6 11 6 7 9 16 18
16 16 16 17 17 16 16 15 16 15 14 13 12 12 11 12 9 8 6 5 5 8 12 7 6 10 12 7 4 11 9 7 7 8 5 7 3 3 3 6 15 11 13 16 17
16 17 18 18 18 18 17 17 16 16 15 14 12 12 10 9 2 7 6 5 7 12 8 6 9 10 10 10 2 10 6 4 6 3 5 8 8 6 2 8 8 9 16 17 16
17 18 18 19 19 19 19 19 17 16 16 13 11 10 9 9 7 7 7 7 10 7 7 7 8 8 11 2 4 10 3 3 3 5 8 8 11 5 7 4 8 11 14 17 15
18 18 19 19 19 19 19 19 19 16 15 11 9 9 8 10 3 10 8 9 6 8 3 8 3 5 7 6 10 6 6 8 8 3 6 8 9 1 8 2 11 9 12 14 16
17 19 19 20 21 20 20 20 20 16 13 7 6 8 9 2 2 8 9 3 1 7 4 1 3 10 2 10 4 10 11 15 12 4 6 12 18 5 4 4 7 10 11 11 14
18 19 20 21 21 21 21 20 19 11 9 5 6 9 8 4 1 6 7 5 5 5 6 2 6 12 9 6 11 14 17 14 10 1 6 13 7 8 3 7 8 9 10 12 14
20 20 20 21 21 20 20 19 11 7 8 6 8 7 5 5 10 11 8 6 6 5 3 5 11 12 7 13 14 15 13 19 6 6 5 7 10 12 1 3 9 9 10 13 13
20 20 21 21 20 20 20 11 5 7 9 9 7 8 7 7 11 8 6 5 7 8 7 10 9 11 11 11 11 7 12 7 4 4 3 12 8 7 7 4 7 11 10 12 13
20 21 22 22 21 20 17 7 8 9 12 11 1 6 4 5 5 9 9 9 8 9 13 9 11 12 10 4 12 10 8 8 6 2 6 15 5 13 5 6 7 9 9 11 12
22 21 22 24 23 21 10 9 9 7 10 16 12 7 4 6 8 12 12 12 10 12 12 6 13 1 3 6 8 9 9 10 4 2 9 12 11 10 3 2 3 10 9 12 11
22 22 23 24 26 10 8 7 7 8 9 11 11 14 11 11 11 16 16 16 11 14 10 16 9 3 7 9 10 11 10 6 8 4 14 11 18 12 9 5 4 6 11 12 13
21 21 22 27 7 4 7 3 7 4 8 15 11 9 15 11 11 10 17 11 9 11 10 11 3 5 9 10 8 15 6 4 9 11 9 2 11 12 10 10 9 7 7 11 14
21 21 20 12 13 7 7 5 7 5 9 14 12 8 11 14 12 13 15 12 12 9 5 5 7 9 9 8 5 4 3 7 9 12 13 11 8 2 8 5 7 5 10 7 12
22 20 21 6 9 9 7 6 6 9 10 9 10 13 16 20 10 13 15 13 9 10 11 12 1 7 12 6 8 4 8 12 12 13 13 12 4 11 6 10 3 5 9 11 13
23 20 10 8 1 6 7 8 9 11 6 11 12 18 19 15 16 13 18 18 12 12 14 14 13 10 7 9 10 10 11 10 11 12 8 9 5 9 7 7 2 3 10 13 14
26 20 9 9 6 6 7 9 12 13 8 5 3 12 18 18 18 17 17 18 20 14 12 11 15 17 11 14 10 12 12 12 16 10 5 7 3 4 7 2 4 3 10 14 14
29 7 8 5 7 6 9 12 11 9 5 7 7 12 14 15 11 17 18 19 18 17 12 8 5 8 4 7 11 14 11 15 17 18 12 14 6 8 8 2 5 7 10 14 14
7 6 6 1 6 7 10 17 8 6 3 9 12 11 13 13 12 17 17 17 17 16 15 3 6 11 10 7 9 12 9 10 9 15 16 8 5 4 10 8 11 7 11 12 12
8 7 5 7 8 9 13 19 16 4 6 6 10 5 12 12 16 15 12 4 13 15 12 15 6 8 7 11 14 10 11 12 16 11 10 4 7 11 5 7 12 8 11 12 12
7 5 6 7 10 11 13 16 4 7 9 8 5 7 4 5 8 12 16 8 5 7 17 16 8 10 14 10 6 11 12 12 10 13 11 12 5 21 8 9 3 10 12 13 13
6 3 5 8 9 10 13 7 3 13 10 9 9 5 3 5 7 9 8 13 4 9 4 9 8 11 13 12 14 11 14 13 9 12 11 13 3 10 11 1 4 10 13 12 12
6 6 5 8 10 10 14 11 12 7 10 7 6 1 7 8 5 6 7 6 4 10 9 5 11 11 14 5 12 14 14 13 14 12 13 16 12 13 17 11 8 9 13 13 12
5 3 7 8 11 11 6 7 16 11 13 10 9 11 10 8 10 7 12 9 9 5 6 9 12 14 17 18 12 11 12 14 13 15 18 9 8 19 6 7 11 10 13 14 15
7 6 3 4 6 7 8 10 12 14 7 10 14 13 11 9 10 10 11 9 10 12 13 9 8 13 16 15 14 13 12 14 16 13 19 22 6 33 8 8 4 8 14 14 15
6 4 7 7 9 10 9 9 10 4 7 11 9 13 8 5 10 10 11 7 7 8 7 8 10 11 12 17 20 14 15 15 16 14 16 12 6 8 8 9 3 6 11 14 14
Wind_Direction
9 2 355 354 348 345 341 336 334 336 335 330 324 321 322 320 300 227 254 61 70 174 259 257 233 251 245 259 252 251 248 128 93 59 78 84 34 105 43 119 73 85 57 111 133
3 359 352 350 346 343 337 333 333 334 331 327 323 316 315 326 274 242 110 127 181 227 241 230 219 224 235 251 251 260 299 64 42 49 23 74 1 38 227 119 142 123 111 122 146
359 352 351 348 345 342 333 334 331 329 326 324 319 312 309 303 264 75 144 160 214 219 266 266 267 250 252 253 220 275 88 85 100 42 357 331 265 127 269 225 135 158 146 149 153
355 350 348 347 343 337 334 331 329 325 322 320 315 304 312 251 1 63 142 171 215 266 240 234 231 225 241 215 199 270 49 26 50 348 322 333 337 304 150 58 71 138 155 160 165
354 348 346 343 338 333 333 328 323 326 317 315 311 306 282 233 68 117 172 172 211 232 232 240 230 245 236 243 232 259 98 246 241 280 326 315 269 336 300 69 112 134 162 166 170
351 345 343 340 335 332 331 327 323 323 317 308 304 302 255 259 86 140 178 180 235 231 183 238 317 331 311 259 260 50 278 275 264 257 263 293 291 178 99 64 140 160 176 173 170
350 344 341 337 333 332 328 324 323 320 317 290 284 276 266 352 58 156 184 228 186 263 198 321 303 243 21 240 241 263 261 249 223 255 293 310 244 67 27 155 143 173 179 175 165
347 344 338 336 331 328 324 321 317 325 309 297 265 262 284 85 165 184 191 178 215 209 303 255 267 276 257 317 257 240 244 255 174 8 103 289 88 76 135 169 149 162 169 163 162
344 342 337 332 328 324 320 316 296 287 270 252 245 243 251 141 198 191 199 218 184 200 196 267 258 262 226 242 242 216 250 225 128 103 331 266 329 113 152 144 141 161 163 162 162
342 338 334 330 326 321 315 290 297 263 221 227 262 258 214 219 166 175 175 236 196 193 216 238 238 241 213 238 252 301 203 241 257 181 225 267 263 329 122 231 168 152 175 171 172
340 336 332 327 323 321 314 218 212 192 224 257 85 267 143 118 151 193 179 201 218 216 230 207 249 221 232 322 352 318 305 301 302 85 269 274 295 278 86 236 180 164 183 183 177
338 335 331 325 320 315 278 270 46 340 293 214 246 269 277 214 182 189 189 206 198 220 220 198 234 32 59 285 275 264 268 261 262 30 258 274 280 289 153 208 230 181 180 196 173
336 333 331 324 318 283 282 23 332 314 260 202 218 221 192 211 222 184 198 217 203 224 197 258 66 75 229 228 252 242 269 300 295 304 259 251 260 234 172 161 207 247 170 198 169
334 331 330 325 296 344 239 28 312 319 266 163 194 210 193 219 230 187 199 207 217 247 216 254 180 219 219 249 244 280 136 283 271 271 291 201 299 192 165 182 175 205 200 187 156
330 327 325 328 316 237 35 299 321 245 259 137 132 99 192 207 129 188 183 207 247 202 231 180 217 207 232 247 230 324 331 283 290 276 276 268 238 194 180 232 117 183 163 181 154
325 324 323 221 221 285 301 296 242 228 239 158 147 185 184 208 174 143 183 224 242 250 220 275 269 214 231 214 244 353 265 255 257 258 255 239 283 294 56 43 67 132 142 148 153
322 317 289 306 355 345 290 237 223 239 131 155 183 175 193 184 198 188 186 197 205 203 212 211 205 213 248 228 204 239 262 258 239 228 246 109 225 295 24 62 332 346 139 148 147
319 315 198 257 310 283 245 225 243 212 195 51 244 196 199 179 201 191 192 207 222 220 274 211 200 200 183 241 253 210 253 274 293 285 17 170 261 83 53 98 154 135 140 150 148
312 202 227 188 224 245 234 223 219 240 63 210 174 218 206 190 212 197 208 213 208 225 244 217 224 129 201 220 232 237 253 268 278 268 264 281 249 188 142 156 123 156 150 158 149
294 240 156 190 217 220 232 241 234 16 325 277 219 208 197 199 195 193 199 216 218 198 239 328 254 178 175 232 235 269 311 236 229 268 279 263 346 151 160 166 120 139 160 154 149
250 225 104 166 198 218 222 229 230 153 255 236 262 199 253 185 202 195 223 113 233 181 220 239 227 164 164 219 250 181 232 251 284 290 305 220 261 4 104 107 134 147 158 159 160
284 229 132 198 205 218 224 239 28 222 219 244 294 278 274 218 225 263 227 191 194 237 201 222 224 251 229 245 225 293 293 225 252 228 270 291 159 227 146 127 200 159 165 162 163
268 47 165 235 224 212 223 259 188 228 222 213 228 256 219 230 266 246 240 82 166 245 235 205 228 240 243 244 197 243 243 252 269 280 262 281 36 42 26 151 162 151 161 161 156
274 193 149 211 280 298 216 221 204 248 261 241 262 237 206 221 213 210 241 136 211 260 21 359 255 249 266 93 276 194 243 239 229 243 245 238 264 186 201 140 146 164 159 161 164
246 360 3 192 214 229 275 228 217 182 240 206 212 233 218 226 199 226 229 166 213 122 221 235 249 261 260 278 275 266 251 220 229 239 255 273 68 321 34 75 144 171 157 175 170
313 331 198 334 342 242 153 220 242 224 196 213 242 208 229 240 238 222 210 227 225 179 230 226 243 260 279 269 260 257 246 261 275 235 247 259 202 184 137 93 134 169 166 185 176
2 247 276 118 198 235 188 215 235 269 184 302 212 242 215 233 319 23 330 347 345 307 250 238 241 248 257 252 248 231 242 257 251 244 251 268 297 6 114 96 112 177 174 184 184